Location: Arrodets-la-Barthe
(43.0306°N, 0.2829°E)
Time: 07:50:26
(UTC+00:00)

CUBEBUG 2 - Visible Passes

Search period start: 01 April 2023 00:00
Search period end: 11 April 2023 00:00
Orbit: 581 x 685 km, 97.8° (Epoch: 31 March)

Date Brightness Start Highest point End Pass type
(mag) Time Alt. Az. Time Alt. Az. Time Alt. Az.
01 Apr ? 01:46:54 10° NE 01:48:39 19° NE 01:48:39 19° NE visible
01 Apr ? 03:23:08 10° N 03:26:05 27° NW 03:26:05 27° NW visible
02 Apr ? 02:07:46 10° NNE 02:10:14 28° NE 02:10:14 28° NE visible
02 Apr ? 03:44:54 10° NNW 03:47:41 20° NW 03:47:41 20° NW visible
03 Apr ? 02:28:52 10° NNE 02:31:48 38° NNE 02:31:48 38° NNE visible
03 Apr ? 04:07:09 10° NNW 04:09:14 13° WNW 04:09:15 13° WNW visible
04 Apr ? 01:15:42 10° ENE 01:15:56 11° ENE 01:15:56 11° ENE visible
04 Apr ? 02:50:07 10° N 02:53:22 43° N 02:53:22 43° N visible
05 Apr ? 01:35:46 10° NE 01:37:29 17° ENE 01:37:29 17° ENE visible
05 Apr ? 03:11:31 10° N 03:14:55 35° NW 03:14:55 35° NW visible
06 Apr ? 01:56:26 10° NNE 01:59:00 26° NE 01:59:00 26° NE visible
06 Apr ? 03:33:06 10° NNW 03:36:26 25° WNW 03:36:26 25° WNW visible
07 Apr ? 02:17:22 10° NNE 02:20:31 40° NE 02:20:31 40° NE visible
07 Apr ? 03:55:00 10° NNW 03:57:47 16° WNW 03:57:57 16° WNW visible
08 Apr ? 02:38:28 10° NNE 02:42:01 52° N 02:42:01 52° N visible
08 Apr ? 04:18:17 10° NW 04:18:38 10° WNW 04:18:59 10° WNW visible
09 Apr ? 01:24:38 10° NE 01:26:04 14° ENE 01:26:04 14° ENE visible
09 Apr ? 02:59:44 10° N 03:03:29 46° NW 03:03:29 46° NW visible
10 Apr ? 01:44:58 10° NE 01:47:31 23° ENE 01:47:31 23° ENE visible
10 Apr ? 03:21:09 10° N 03:24:57 31° WNW 03:24:57 31° WNW visible
